Location: De Har
(53.3413°N, 6.6858°E)
Time: 17:20:56
(UTC+00:00)

ADEOS Rocket - Pass Details

Date: 22 April 2026
Orbit: 859 x 1304 km, 98.8° (Epoch: 9 May)

Event Time Altitude Azimuth Distance (km) Brightness Sun altitude
Rises 02:12:27 0° 15° (NNE) 4,131 7.5 -16.1°
Reaches altitude 10° 02:15:02 10° 14° (NNE) 3,209 6.7 -15.8°
Maximum altitude 02:22:32 78° 290° (WNW) 1,320 3.6 -15.1°
Enters shadow 02:28:49 17° 207° (SSW) 2,807 4.8 -14.4°
